Simultaneous Nadir Overpasses (SNOs) Predictions

Prediction of SNOs between TERRA and METOP-C Satellite Orbit:

Table of predicted SNOs for the next 14.0 days since TLE Epoch: 5/28/2022
Index Date (TERRA) Time (TERRA) Lat,Lon (TERRA) SZA (TERRA ) Date (METOP-C) Time (METOP-C) Lat,Lon (METOP-C) SZA (METOP-C ) Distance(km) Time Diff (sec)
1 05/29/2022 16:48:11 -81.19, 149.31 118.14 05/29/2022 16:47:46 -81.19, 149.49 118.13 3.10 25
2 05/29/2022 17:37:36 81.21, -42.62 61.92 05/29/2022 17:38:25 81.21, -42.53 61.95 1.65 49
3 06/01/2022 12:22:16 -81.18,-144.37 118.58 06/01/2022 12:22:05 -81.18,-144.37 118.58 0.64 11
4 06/01/2022 13:11:41 81.20, 23.66 61.48 06/01/2022 13:12:44 81.20, 23.52 61.50 2.45 63
5 06/04/2022 07:06:55 81.16, 114.23 61.03 06/04/2022 07:05:44 81.17, 114.29 61.01 1.29 71
6 06/04/2022 07:56:21 -81.18, -77.82 118.93 06/04/2022 07:56:24 -81.18, -77.91 118.93 1.46 3
7 06/07/2022 02:40:59 81.18,-179.04 60.76 06/07/2022 02:40:02 81.18,-179.01 60.74 0.57 57
8 06/07/2022 03:30:25 -81.20, -11.06 119.19 06/07/2022 03:30:42 -81.19, -11.12 119.20 1.34 17
9 06/09/2022 22:15:03 81.17,-112.81 60.47 06/09/2022 22:14:20 81.17,-112.73 60.46 1.55 43



Historial Predications of SNOs between TERRA and METOP-C
